Regional Weather Roundup
Issued by NWS

Home | Current Version | Previous Version | Graphics & Text | Print | Product List | Glossary On
Versions: 1 2 3 4 5 6 7 8 9 10 11 12 13 14 15 16 17 18 19 20 21 22 23 24 25 26 27 28 29 30 31 32 33 34 35 36 37 38 39 40 41 42 43 44 45 46 47 48 49 50
896
ASUS45 KBOI 180710
RWRID

IDAHO REGIONAL WEATHER ROUNDUP
NATIONAL WEATHER SERVICE BOISE ID
1200 AM MST WED JAN 18 2017

NOTE: "FAIR" INDICATES FEW OR NO CLOUDS BELOW 12000 FEET
WITH NO SIGNIFICANT WEATHER AND/OR OBSTRUCTIONS TO VISIBILITY

IDZ012-014-180800-
SOUTHWEST IDAHO


CITY           SKY/WX    TMP DP  RH WIND       PRES   REMARKS
BOISE          PTCLDY     7   3  84 CALM      30.16F FOG
CALDWELL       PTCLDY     6   2  83 CALM      30.22S FOG
MOUNTAIN HOME  PTCLDY    19  15  84 SE23      30.11F WCI   2
$$

IDZ016-017-180800-
SOUTHCENTRAL IDAHO


CITY           SKY/WX    TMP DP  RH WIND       PRES   REMARKS
BURLEY         CLEAR     16  10  77 E13       30.11F WCI   2
JEROME         CLEAR     15   8  73 NE30G37   30.09F WCI  -5
TWIN FALLS     CLEAR     12   8  84 E8        30.10F WCI   0
$$

IDZ019>023-180800-
SOUTHEAST IDAHO


CITY           SKY/WX    TMP DP  RH WIND       PRES   REMARKS
IDAHO FALLS    CLOUDY     2  -2  83 E3        30.20S
POCATELLO      CLOUDY     6   2  83 E6        30.18F WCI  -4
REXBURG        CLOUDY     1  -2  87 E3        30.18F
$$

IDZ006-010-011-018-031-032-180800-
CENTRAL IDAHO MOUNTAINS


CITY           SKY/WX    TMP DP  RH WIND       PRES   REMARKS
MCCALL         CLOUDY    17  13  84 CALM      29.97S
HAILEY         PTCLDY    16  10  79 NW8       30.12F WCI   5
STANLEY          N/A      1  -2  87 CALM      30.03F
SALMON         CLOUDY    -9 -15  77 CALM      30.17F
CHALLIS        CLEAR     -8 -11  86 SE3       30.11F
$$

IDZ002-004-006-007-026-180800-
NORTHERN IDAHO


CITY           SKY/WX    TMP DP  RH WIND       PRES   REMARKS
LEWISTON       CLOUDY    34  22  61 E15       29.88S WCI  24
LOWELL           N/A     27  24  89 N6        29.94S WCI  20
COEUR D`ALENE  LGT SNOW  28  27  96 NE7       29.82S FOG     WCI  21
MULLAN PASS    CLOUDY    30  14  51 VRB5      29.76S WCI  25
$$




USA.gov is the U.S. government's official web portal to all federal, state and local government web resources and services.